www.pogodaiklimat.ru

Погода и климат >> Архив погоды >> Россия >> Приморский край >> Терней


ПОГОДА в Тернее

  • Прогноз погоды в Тернее
  • Монитор погоды в Тернее
  • Климат города

АРХИВ ПОГОДЫ в Тернее

Время (UTC), дата Ветер
(напр.,м/с)
 
Видим.   Явления Облачность Т
(С)
Тd
(С)
f
(%)
Тe
(С)
Тes
(С)
Комфортность P
(гПа)
Po
(гПа)
Тmin
(С)
Tmax
(С)
R
(мм)
R24
(мм)
S
(см)
09 14.10 З 4
{14}
20 км 3/3 600 м
[Sc]
+6.1 -3.2 51 +3 +3 1021.3 1013.6 +11.2
12 14.10 З 8-14
{14}
20 км 8/8 600 м
[Cb cap]
+5.3 -1.3 62 0 0 1023.2 1015.5
15 14.10 З 4
{14}
20 км ясно +4.0 -2.8 61 0 0 1023.9 1016.2
18 14.10 ЮЗ 1 20 км ясно +1.2 -3.8 69 -0 -0 1024.6 1016.7
21 14.10 ЮЗ 1 50 км ясно -0.6 -4.6 74 -2 -2 1025.7 1017.8 -1.1
00 15.10 СЗ 4 50 км 3/3 600 м
[Sc]
+7.6 -5.8 38 +5 +6 1026.3 1018.6
03 15.10 СЗ 7-14
{14}
50 км 8/8 600 м
[Sc]
+10.6 -6.1 30 +8 +8 1024.7 1017.2
06 15.10 СЗ 6-13
{14}
50 км 4/4 600 м
[Sc]
+11.0 -8.7 24 +9 +9 1024.2 1016.7
09 15.10 З 3
{15}
20 км 1/1 600 м
[Sc]
+6.8 -9.2 31 +5 +5 1026.2 1018.5 +11.3
12 15.10 З 5
{10}
20 км ясно +4.6 -8.9 37 +1 +1 1028.3 1020.5
15 15.10 З 3 20 км ясно +1.8 -8.7 46 -2 -2 1029.2 1021.3
18 15.10 З 1 20 км ясно -1.8 -8.4 61 -3 -3 1029.1 1021.2
21 15.10 СЗ 2 50 км ясно -3.5 -8.2 70 -7 -7 1029.6 1021.5 -3.5
00 16.10 СЗ 2 50 км ясно +3.9 -5.9 49 +2 +5 1029.2 1021.4 -3.7
03 16.10 ЮВ 2 50 км 3/0
[Ac As]
+10.9 -7.6 27 +10 +16 1026.1 1018.5
06 16.10 СЗ 4 50 км 4/4 600 м
[Sc]
+9.9 -4.4 36 +8 +9 1025.0 1017.4
09 16.10 З 3 20 км 3/3 600 м
[Sc]
+4.7 -3.7 54 +2 +2 1025.7 1018.0 +11.2
12 16.10 СЗ 2 20 км ясно +1.2 -3.9 69 -2 -2 1026.1 1018.2
15 16.10 СЗ 3 20 км ясно -1.0 -4.4 78 -6 -6 1025.5 1017.6
18 16.10 СЗ 2 20 км ясно -2.5 -5.0 83 -6 -6 1024.5 1016.5
21 16.10 СЗ 2 20 км 3/0
[Ac lent]
-2.8 -5.0 85 -7 -7 1023.1 1015.2 -3.5
00 17.10 СЗ 3 50 км 3/0
[Cs]
+2.0 -2.6 72 -2 0 1021.0 1013.2 -3.6
03 17.10 СЗ 4
{10}
50 км 8/5 600 м
[Cu med, cong Ci fib]
+10.3 -3.7 37 +8 +10 1018.2 1010.6
06 17.10 СЗ 9-19
{19}
50 км 4/4 600 м
[Cu med, cong]
+6.9 -6.1 39 +2 +2 1019.6 1011.9
09 17.10 З 9-19
{22}
20 км 1/1 600 м
[Sc diur, vesp]
+4.2 -6.0 47 -2 -2 1021.8 1014.1 +10.4
12 17.10 СЗ 3
{21}
20 км ясно +1.7 -3.4 69 -2 -2 1024.5 1016.7
15 17.10 З 4
{14}
20 км ясно +1.9 -11.7 36 -2 -2 1026.8 1019.0
18 17.10 СЗ 1 20 км ясно -0.8 -11.4 44 -2 -2 1028.3 1020.4
21 17.10 СЗ 1 20 км ясно -3.5 -10.5 58 -5 -5 1028.7 1020.7 -3.8
00 18.10 СЗ 4 50 км ясно +2.9 -11.0 35 -1 +1 1029.3 1021.5 -4.4
03 18.10 СЗ 5-10
{13}
50 км ясно +8.6 -15.0 17 +6 +10 1027.1 1019.4
06 18.10 СЗ 4
{15}
50 км 3/0
[Cc]
+8.9 -16.8 14 +7 +9 1026.3 1018.7
09 18.10 З 3 20 км ясно +2.4 -13.6 30 -1 -1 1027.3 1019.5 +9.3
12 18.10 СЗ 2 20 км ясно -0.4 -12.5 40 -3 -3 1027.7 1019.8
15 18.10 СЗ 2 20 км ясно -1.8 -10.7 51 -5 -5 1026.7 1018.8
18 18.10 СЗ 3 20 км ясно -3.5 -9.9 61 -8 -8 1026.7 1018.7
21 18.10 СЗ 3 20 км 1/0
[Ac lent]
-5.0 -9.6 70 -10 -10 1026.2 1018.2 -5.1
00 19.10 СЗ 2 50 км 8/8 600 м
[Sc]
-0.6 -8.2 56 -4 -3 1025.7 1017.8
03 19.10 В 3 50 км 8/8 600 м
[Sc]
+7.8 -4.4 42 +6 +7 1023.3 1015.6
06 19.10 ЮВ 1 50 км 8/8 600 м
[Sc]
+7.9 +0.9 61 +7 +8 1021.7 1014.0
09 19.10 штиль 0 20 км 3/3 600 м
[Sc]
+5.4 +1.0 73 +5 +5 1021.9 1014.2 +8.4
12 19.10 СЗ 3 20 км 10/10 600 м
[Sc]
+2.9 -0.7 77 -1 -1 1022.6 1014.8
15 19.10 СЗ 2 20 км 10/8 600 м
[Sc Ac und]
+3.6 -0.8 73 +1 +1 1022.8 1015.0
18 19.10 СЗ 3 20 км 6/3 600 м
[Sc Ac trans Ci fib]
+2.4 -1.3 77 -2 -2 1022.5 1014.8
21 19.10 СЗ 3 20 км 10/4 600 м
[Sc Ac trans Ci fib]
+2.7 -1.0 77 -1 -1 1022.7 1014.9 +2.3
00 20.10 СЗ 2 50 км 6/0
[Ac trans]
+6.7 +0.3 64 +5 +6 1023.1 1015.4
03 20.10 ЮВ 3 50 км 10/10 600 м
[Sc]
+7.9 +1.9 66 +5 +5 1022.3 1014.7
06 20.10 ЮВ 2 10 км слабый ливневой дождь 10/10 600 м
[Cb cap]
+7.6 +3.9 77 +6 +6 1021.8 1014.2
09 20.10 В 1 10 км слабый ливневой дождь 10/10 300 м
[Cb cap]
+6.8 +5.0 88 +6 +6 1022.0 1014.4 +9.9 0.0
12 20.10 ЮВ 1 20 км {ливн. осадки} 10/10 300 м
[St]
+6.3 +5.3 93 +5 +5 1022.1 1014.5
15 20.10 СЗ 1 20 км 10/10 300 м
[St]
+6.5 +5.8 95 +5 +5 1021.7 1014.0
18 20.10 ЮЗ 1 20 км 8/8 300 м
[St]
+5.8 +5.3 97 +4 +4 1019.9 1012.2
21 20.10 З 1 20 км 10/10 300 м
[St]
+5.6 +5.3 98 +4 +4 1019.4 1011.7 +5.3 0.0
00 21.10 штиль 0 500 м туман {ливн. осадки} ?/? +7.2 +7.2 100 +6 +6 1019.8 1012.1
03 21.10 СВ 1 50 км {туман} 1/1 300 м
[St]
+13.8 +8.0 68 +14 +21 1017.2 1009.8
06 21.10 В 2 10 км слабый ливневой дождь {туман} 8/8 600 м
[Cb cap]
+11.6 +7.5 76 +11 +11 1016.1 1008.6

 

Местоположение метеостанции Терней (Приморский край, Россия): широта 45.00 долгота 136.60 высота над уровнем моря 62 м.

В архиве по умолчанию представлена погода в Тернее за последнюю неделю. Архивные данные за месяц целиком и за предыдущие месяцы, начиная с января 2011 года, Вы можете получить, выбрав интересующий диапазон дат из раскрывающегося списка и нажав кнопку "Ввод!".

Внимание! Время в таблицах - всемирное. Для получения местного времени необходимо прибавить поправку, которая в Тернее равна 10 ч.

Смотрите также архив погоды в соседних городах и на ближайших метеорологических станциях:

Погода в Малой Кеме (Приморский край, Россия) (59 км)
Погода в Рудной Пристани (Приморский край, Россия) (94 км)
Погода в Мельничном (Приморский край, Россия) (100 км)
Погода в Богополе (Приморский край, Россия) (126 км)
Погода в Кавалерово (Приморский край, Россия) (152 км)
Погода в Глубинном (Приморский край, Россия) (156 км)
Погода в Охотничем (Приморский край, Россия) (171 км)
Погода в Ольге (Приморский край, Россия) (173 км)
Погода в Малиново (Приморский край, Россия) (194 км)
Погода в Красном Яре (Приморский край, Россия) (198 км)

Пояснения к столбцам:

Ветер - указаны скорость ветра в м/с - средняя за 10 мин, порывы в срок и между сроками (в фигурных скобках) и направление, откуда дует ветер: С - северный, СВ - северо-восточный, В - восточный, ЮВ - юго-восточный, Ю - южный, ЮЗ - юго-западный, З - западный, СЗ - северо-западный.
Видимость - горизонтальная дальность видимости в метрах или километрах. При видимости от 1 до 10 км при отсутствии осадков обычно наблюдается дымка, при ухудшении видимости до 1 км и менее - туман. В сухую погоду видимость может ухудшаться дымом, пылью или мглою.
Явления - указаны атмосферные явления, наблюдавшиеся в срок или в последний час перед сроком; фигурными скобками обозначены явления, наблюдавшиеся между сроками (за 1-3 часа до срока); квадратными скобками обозначены град или гололедные отложения с указанием их диаметра в мм.
Облачность - указаны через наклонную черту общая и нижняя облачность в баллах и высота нижней границы облаков в метрах; квадратными скобками обозначены формы облаков: Ci - перистые, Cs - перисто-слоистые, Cc - перисто-кучевые, Ac - высококучевые, As - высокослоистые, Sc - слоисто-кучевые, Ns - слоисто-дождевые, Cu - кучевые, Cb - кучево-дождевые. Подробнее классификацию облаков см. в Атласе облаков (PDF).
T - Температура воздуха - температура, измеренная на высоте 2 м над землей.
Td - Температура точки росы - температура, при понижении до которой содержащийся в воздухе водяной пар достигнет насыщения.
f - Относительная влажность воздуха - влажноcть воздуха, измеренная на высоте 2 м над землей.
Te - Эффективная температура - температура, которую ощущает одетый по сезону человек в тени. Характеристика душности погоды. При расчете учитывается влияние влажности воздуха и скорости ветра на теплоощущения человека.
Tes - Эффективная температура на солнце - температура, которую ощущает человек, с поправкой на солнечный нагрев. Характеристика знойности погоды. Зависит от высоты солнца над горизонтом, облачности и скорости ветра. Ночью, в пасмурную погоду, а также при ветре 12 м/с и более поправка равна нулю.
P - Атмосферное давление - приведенное к уровню моря атмосферное давление.
Po - Атмосферное давление - измеренное на уровне метеостанции атмосферное давление.
Tmin - Минимальная температура - минимум температуры воздуха на высоте 2 м над землей.
Tmax - Максимальная температура - максимум температуры воздуха на высоте 2 м над землей.
R - Количество осадков - Количество выпавших осадков за период времени, мм. При наведении курсора мыши на число - период времени, за который выпало указанное количество осадков.
R24 - Количество осадков - Количество выпавших осадков за 24 часа, мм.
S - Снежный покров - Высота снежного покрова, см. При наведении курсора мыши на число - состояние снежного покрова и степень покрытия местности в баллах.